Location: Ku?niki
(51.4449°N, 17.8974°E)
Time: 03:46:09
(UTC+00:00)

Cosmos 2263 Rocket - Pass Details

Date: 18 September 2020
Orbit: 822 x 849 km, 71.0° (Epoch: 22 October)

Event Time Altitude Azimuth Distance (km) Brightness Sun altitude
Rises 17:49:20 0° 203° (SSW) 3,346 5.4 -9.2°
Reaches altitude 10° 17:51:44 10° 202° (SSW) 2,419 4.7 -9.5°
Maximum altitude 17:57:16 77° 117° (ESE) 853 2.1 -10.4°
Drops below altitude 10° 18:02:53 10° 32° (NNE) 2,449 4.5 -11.2°
Sets 18:05:20 0° 32° (NNE) 3,390 5.2 -11.6°
